Location: Unspecified
(0.0000°N, 0.0000°E)
Time: 23:46:56
(UTC+00:00)

PAYLOAD G - Pass Details

Date: 11 August 2024
Orbit: 808 x 820 km, 98.7° (Epoch: 12 September)

Event Time Altitude Azimuth Distance (km) Brightness Sun altitude
Rises 04:51:15 0° 44° (NE) 3,338 ? -17.8°
Reaches altitude 10° 04:54:26 10° 64° (ENE) 2,407 ? -17.1°
Maximum altitude 04:57:45 17° 103° (ESE) 1,972 ? -16.3°
Drops below altitude 10° 05:01:04 10° 142° (SE) 2,409 ? -15.5°
Sets 05:04:14 0° 162° (SSE) 3,342 ? -14.7°
